Regional Weather Roundup
Issued by NWS

Home | Current Version | Previous Version | Text Only | Print | Product List | Glossary Off
Versions: 1 2 3 4 5 6 7 8 9 10 11 12 13 14 15 16 17 18 19 20 21 22 23 24 25 26 27 28 29 30 31 32 33 34 35 36 37 38 39 40 41 42 43 44 45 46 47 48 49 50

000
ASUS43 KIND 141059
RWRIN

WEATHER ROUNDUP FOR INDIANA
NATIONAL WEATHER SERVICE INDIANAPOLIS IN
700 AM EDT MON JUL 14 2014

NOTE: "FAIR" INDICATES FEW OR NO CLOUDS BELOW 12,000 FEET WITH NO
SIGNIFICANT WEATHER AND/OR OBSTRUCTIONS TO VISIBILITY.

* - STATION DOES NOT REPORT WEATHER SUCH AS PRECIPITATION OR FOG.

+ - STATION NOT QUALITY CONTROLLED BY THE NATIONAL WEATHER SERVICE.
    USE DATA WITH CAUTION...ESPECIALLY DEWPOINT AND RELATIVE
    HUMIDITY OBSERVATIONS.

INZ001>003-010>013-019-020-141200-
NORTHWEST INDIANA

CITY           SKY/WX    TMP DP  RH WIND       PRES   REMARKS
GARY /AIRPORT/ PTCLDY    63  61  94 SE6       29.88S
MONTICELLO +   MOCLDY    64  64  99 CALM      29.89S FOG
VALPARAISO     PTCLDY    62  58  86 CALM      29.89S

$$

LMZ046-743>745-141200-
SOUTHERN LAKE MICHIGAN

STATION/POSITION TIME  TEMP WIND        PRES
                       AIR  DIR/SP/G
                 (UTC) (F)  (DEG/KT/KT) (MB)
MICHIGAN CITY    1000   69   80/  1/  1   N/A

$$

INZ004-005-014>016-021>024-141200-
NORTH CENTRAL INDIANA

CITY           SKY/WX    TMP DP  RH WIND       PRES   REMARKS
GOSHEN         MOCLDY    67  64  90 W3        29.89R
SOUTH BEND     PTCLDY    65  61  87 S3        29.89S
WARSAW +       CLOUDY    64  63  94 W6        29.89S

$$

INZ006>009-017-018-025>027-141200-
NORTHEAST INDIANA

CITY           SKY/WX    TMP DP  RH WIND       PRES   REMARKS
ANGOLA *+      CLOUDY    70  61  73 W5        29.89R
FORT WAYNE     CLOUDY    68  65  90 SW6       29.89S

$$

INZ028-029-035-036-043>045-051>053-141200-
WEST CENTRAL INDIANA

CITY           SKY/WX    TMP DP  RH WIND       PRES   REMARKS
GREENCASTLE +  FOG       70  70 100 CALM      29.92R VSB 1/4
LAFAYETTE      CLOUDY    63  63 100 CALM      29.89S FOG
TERRE HAUTE    CLOUDY    71  69  93 CALM      29.90S

$$

INZ030>032-037>040-046>048-054>057-064-065-141200-
CENTRAL INDIANA

CITY           SKY/WX    TMP DP  RH WIND       PRES   REMARKS
COLUMBUS       LGT RAIN  70  70 100 CALM      29.92  FOG
INDIANAPOLIS   CLOUDY    70  68  93 CALM      29.90S FOG
-EAGLE CREEK   CLOUDY    70  65  84 CALM      29.91R
KOKOMO *+      CLOUDY    64  61  88 CALM      29.91S
MT COMFORT *+  CLOUDY    68 N/A N/A CALM      29.92S VSB 1/4
SHELBYVILLE    CLOUDY    75  71  87 CALM      29.91S FOG

$$

INZ033-034-041-042-049-050-058-059-141200-
EAST CENTRAL INDIANA

CITY           SKY/WX    TMP DP  RH WIND       PRES   REMARKS
MUNCIE         CLOUDY    69  66  90 CALM      29.91S

$$

INZ060-061-067>069-081>083-085>088-141200-
SOUTHWEST INDIANA

CITY           SKY/WX    TMP DP  RH WIND       PRES   REMARKS
EVANSVILLE     LGT RAIN  72  70  93 W6        29.95R FOG
HUNTINGBURG *+ CLOUDY    73  68  83 NW5       29.94R

$$

INZ062-063-066-070>080-084-089>092-141200-
SOUTH CENTRAL AND SOUTHEAST INDIANA

CITY           SKY/WX    TMP DP  RH WIND       PRES   REMARKS
BLOOMINGTON    LGT RAIN  71  69  93 SW3       29.93R

$$



USA.gov is the U.S. government's official web portal to all federal, state and local government web resources and services.